Tracking 29487 objects as of 11-Sep-2024
HD Live streaming from Space Station
objects crossing your sky now

TITAN 4B R/B

Track TITAN 4B R/B now!
10-day predictions
TITAN 4B R/B is classified as:


NORAD ID: 26474
Int'l Code: 2000-047B
Perigee: 528.2 km
Apogee: 599.9 km
Inclination: 68.0 °
Period: 95.8 minutes
Semi major axis: 6935 km
RCS: 15.6118 m2 (large)
Launch date: August 17, 2000
Source: United States (US)
Launch site: AIR FORCE WESTERN TEST RANGE (AFWTR)

Note: This is a ROCKET BODY
Your satellite tracking list
Your tracking list is empty




NASA's NSSDC Master Catalog

Two Line Element Set (TLE):
1 26474U 00047B   24255.00367095  .00008431  00000-0  61199-3 0  9997
2 26474  67.9918 125.6676 0051721 289.1880  70.3672 15.03233558310936
Source of the keplerian elements: AFSPC